Location: Newark
(47.5833°N, 8.1500°E)
Time: 12:19:25
(UTC+00:00)

Transit 2A - Pass Details

Date: 30 October 2020
Orbit: 595 x 964 km, 66.7° (Epoch: 27 November)

Event Time Altitude Azimuth Distance (km) Brightness Sun altitude
Rises 00:25:40 0° 214° (SW) 3,623 - -52.9°
Reaches altitude 10° 00:28:13 10° 215° (SW) 2,692 - -52.7°
Maximum altitude 00:34:37 84° 304° (NW) 969 - -52.1°
Drops below altitude 10° 00:40:52 10° 34° (NNE) 2,638 - -51.5°
Exits shadow 00:41:23 - 34° (NE) 2,822 9.4 -51.4°
Sets 00:43:21 0° 35° (NE) 3,547 10.1 -51.2°
